Flag for U.S.A. Weather past 2 weeks in Scranton, Pennsylvania, U.S.A.

Now
50 °F

Clear.


Feels Like: 47 °F
Forecast: 46 / 71 °F
Wind: 7 mph from East

Location: Barre - Scranton - Wilkes-Barre / Scranton International Airport

Current Time: Sep 18, 2014 at 12:48:40 AM

Latest Report: Sep 17, 2014 at 11:54 PM


Visibility: 10 mi

Pressure: 29.99 "Hg

Humidity: 77%

Dew point: 43 °F

Location of ScrantonLocation

Historic Weather in Scranton — Graph

°F

Scranton temperature yesterday

Maximum temperature yesterday: 68 °F (at 2:54 PM)
Minimum temperature yesterday: 44 °F (at 4:54 AM)
Average temperature yesterday: 55 °F

Past Weeks' High & Low Weather Summary

 TemperatureHumidityPressure
High87 °F (Sep 6, 2:54 PM)93% (Sep 6, 9:54 PM)30.32 "Hg (Sep 6, 9:54 PM)
Low44 °F (Sep 15, 6:54 AM)37% (Sep 3, 4:54 PM)29.81 "Hg (Sep 11, 12:54 PM)
Average64 °F71%30.10 "Hg
* Reported Sep 2 10:54 PM — Sep 17 10:54 PM, Scranton, Weather by CustomWeather, © 2014

Note: Actual official high and low records may vary slightly from our data, if they occured in-between our weather recording intervals... More about our weather records

Advertising

Scranton weather history for previous 24 hours

 ConditionsComfort  
Time TempWeatherWind HumidityBarometerVisibility
10:54 PM
Sep 17
51 °FClear.8 mph74%29.99 "Hg10 mi
9:54 PM54 °FClear.7 mph67%29.98 "Hg10 mi
8:54 PM55 °FClear.5 mph64%29.99 "Hg10 mi
7:54 PM59 °FSunny.3 mph54%29.99 "Hg10 mi
6:54 PM64 °FPassing clouds.7 mph43%29.98 "Hg10 mi
5:54 PM66 °FPartly sunny.6 mph40%29.97 "Hg10 mi
4:54 PM67 °FScattered clouds.10 mph39%29.97 "Hg10 mi
3:54 PM67 °FSunny.6 mph41%29.97 "Hg10 mi
2:54 PM68 °FPartly sunny.6 mph39%29.98 "Hg10 mi
1:54 PM67 °FScattered clouds.N/A41%30.00 "Hg10 mi
12:54 PM65 °FScattered clouds.5 mph44%30.03 "Hg10 mi
11:54 AM63 °FSunny.7 mph56%30.05 "Hg10 mi
10:54 AM58 °FSunny.5 mph70%30.07 "Hg9 mi
9:54 AM52 °FSunny.3 mph80%30.09 "Hg8 mi
8:54 AM50 °FSunny.No wind83%30.08 "Hg10 mi
8:01 AM44 °FLow clouds.6 mph93%30.08 "Hg10 mi
7:54 AM44 °FFog.3 mph93%30.08 "Hg5 mi
6:54 AM44 °FLow clouds.3 mph89%30.07 "Hg10 mi
5:54 AM44 °FPassing clouds.3 mph89%30.06 "Hg10 mi
4:54 AM44 °FClear.5 mph93%30.05 "Hg10 mi
3:54 AM45 °FClear.6 mph93%30.06 "Hg10 mi
2:54 AM46 °FClear.5 mph89%30.06 "Hg10 mi
1:54 AM47 °FClear.5 mph90%30.06 "Hg10 mi
12:54 AM48 °FPassing clouds.6 mph89%30.06 "Hg10 mi
Weather by CustomWeather, © 2014

See weather overviewHow to use our weather pages